[Iaude] MPEC A146: 2024 AV3 [a=1.80,e=0.54,i=4.4,H=25.7]
    mpec at marsden.cfa.harvard.edu 
    mpec at marsden.cfa.harvard.edu
       
    Fri Jan 12 17:48:13 EST 2024
    
    
  
M.P.E.C. 2024-A146                             Issued 2024 January 12, 22:46 UT
     The Minor Planet Electronic Circulars contain information on unusual
         minor planets, routine data on comets and natural satellites,
         and occasional editorial announcements.  They are published
    on behalf of Division F of the International Astronomical Union by the
          Minor Planet Center, Smithsonian Astrophysical Observatory,
                          Cambridge, MA 02138, U.S.A.
			  
             Prepared using the Tamkin Foundation Computer Network
                              MPC at CFA.HARVARD.EDU
            URL https://www.minorplanetcenter.net/    ISSN 1523-6714
                                    2024 AV3                                    
Observations:
     K24A03V*1C2024 01 11.23250005 05 48.095+09 54 40.64         20.33GVEA146G96
     K24A03V 1C2024 01 11.23811705 05 56.591+09 54 48.82         20.22GVEA146G96
     K24A03V 1C2024 01 11.24374105 06 05.180+09 54 56.88         20.33GVEA146G96
     K24A03V KC2024 01 11.27294005 06 49.496+09 55 36.84         20.65GVEA146V06
     K24A03V KC2024 01 11.27395905 06 51.026+09 55 37.99         20.47GVEA146V06
     K24A03V KC2024 01 11.27497905 06 52.578+09 55 39.25         20.61GVEA146V06
     K24A03V KC2024 01 11.27599705 06 54.101+09 55 40.40         20.35GVEA146V06
     K24A03V KC2024 01 11.33515005 08 23.384+09 56 56.83         20.32GVEA146V06
     K24A03V KC2024 01 11.33650905 08 25.458+09 56 58.63         20.60GVEA146V06
     K24A03V KC2024 01 11.33787005 08 27.467+09 57 00.18         20.22GVEA146V06
     K24A03V KC2024 01 11.33923405 08 29.519+09 57 01.98         20.43GVEA146V06
     K24A03V KB2024 01 11.77934 05 19 28.13 +10 05 17.0          18.5 RZEA146106
     K24A03V KB2024 01 11.78601 05 19 37.06 +10 05 25.2                ZEA146106
     K24A03V KC2024 01 11.82215305 20 25.43 +10 06 07.2          20.5 GVEA146L01
     K24A03V KC2024 01 11.82363605 20 27.41 +10 06 08.9          20.7 GVEA146L01
     K24A03V KC2024 01 11.82511805 20 29.40 +10 06 09.7          20.5 GVEA146L01
     K24A03V KC2024 01 11.82660005 20 31.36 +10 06 11.4          20.8 GVEA146L01
     K24A03V KC2024 01 11.82808205 20 33.34 +10 06 14.1          20.5 GVEA146L01
     K24A03V KC2024 01 11.83339805 20 40.36 +10 06 19.1          20.7 GVEA146L01
     K24A03V KC2024 01 11.83561905 20 43.31 +10 06 21.6          20.4 GVEA146L01
     K24A03V KC2024 01 11.83795105 20 46.39 +10 06 24.2          20.3 GVEA146L01
     K24A03V KC2024 01 11.84023105 20 49.40 +10 06 26.2          20.7 GVEA146L01
     K24A03V KC2024 01 11.84275505 20 52.71 +10 06 28.6          21.0 GVEA146L01
     K24A03V KC2024 01 11.95865 05 23 24.21 +10 08 21.2                VEA146204
     K24A03V KC2024 01 11.97092 05 23 39.96 +10 08 31.9          20.5 GVEA146204
     K24A03V KC2024 01 12.91875 05 42 28.23 +10 20 20.3          19.9 GXEA146K83
     K24A03V KC2024 01 12.92914 05 42 38.70 +10 20 25.8          19.9 GXEA146K83
Observer details:
106 Crni Vrh.  Observer J. Vales.  0.60-m f/3.3 reflector + CMO.
204 Schiaparelli Observatory.  Observers L. Buzzi, G. Galli.  0.84-m f/3.5
    reflector + CCD.
G96 Mt. Lemmon Survey.  Observer J. K. Hogan.  Measurers T. Beuden, V. F.
    Carvajal, D. Fay, J. B. Fazekas, D. C. Fuls, A. R. Gibbs, A. D. Grauer, H.
    Groeller, J. K. Hogan, R. A. Kowalski, S. M. Larson, G. J. Leonard, D.
    Rankin, R. L. Seaman, F. C. Shelly, K. W. Wierzchos.  1.5-m reflector +
    10K CCD.
K83 Beppe Forti Astronomical Observatory, Montelupo.  Observers M. Tombelli,
    G. Ferrini, G. Fieramosca, A. Mazzanti, A. Squilloni, F. Cheli, L.
    Grazzini, G. Interranrte, G. Bimbi, M. Calamadrei.  Measurers M. Tombelli,
    F. Bernardi.  0.40-m f/8 Ritchey-Chretien + CCD.
L01 Visnjan Observatory, Tican.  Observers K. Korlevic, L. Poropat.  Measurer
    K. Korlevic.  1.0-m f/2.9 reflector + CCD.
V06 Catalina Sky Survey-Kuiper.  Observer K. W. Wierzchos.  Measurers T.
    Beuden, V. F. Carvajal, D. Fay, J. B. Fazekas, D. C. Fuls, A. R. Gibbs, A.
    D. Grauer, H. Groeller, J. K. Hogan, R. A. Kowalski, S. M. Larson, G. J.
    Leonard, D. Rankin, R. L. Seaman, F. C. Shelly, K. W. Wierzchos.  1.55-m
    reflector + 1K CCD.
Orbital elements:
2024 AV3                                                 Earth MOID = 0.0025 AU
Epoch 2023 Sept. 13.0 TT = JDT 2460200.5                MPC                     
M 329.26787              (2000.0)            P               Q                  
n   0.40927604     Peri.  124.14420     +0.70225862     -0.70789067             
a   1.7966294      Node   281.05246     +0.62517061     +0.66403100             
e   0.5420409      Incl.    4.42100     +0.34057972     +0.24073560             
P   2.41           H   25.77          G   0.15           U   8                  
Residuals in seconds of arc
240111 G96 (1.1+  0.3-)   240111 V06  0.8-  0.2-    240111 L01  0.6-  0.0
240111 G96  0.0   0.0     240111 V06  0.8-  0.0     240111 L01  0.5-  0.2+
240111 G96  0.3+  0.2+    240111 106  0.3-  1.0-    240111 L01  0.5-  0.3+
240111 V06  0.2-  0.1+    240111 106  1.1-  0.4-    240111 L01  0.5-  0.1-
240111 V06  0.4-  0.1-    240111 L01  1.1-  0.2+    240111 L01  0.8-  0.4-
240111 V06  0.3-  0.2-    240111 L01  0.9-  0.3+    240111 204  0.2+  0.1+
240111 V06  0.6-  0.4-    240111 L01  0.6-  0.5-    240111 204  0.0   0.2-
240111 V06  0.6-  0.1-    240111 L01  0.6-  0.4-    240112 K83  0.3+  0.3+
240111 V06  0.2-  0.0     240111 L01  0.4-  0.7+    240112 K83  0.6-  0.3+
Ephemeris:
2024 AV3                 a,e,i = 1.80, 0.54, 4                   q = 0.8228
Date    TT    R. A. (2000) Decl.     Delta      r    Elong.  Phase     V
2023 12 13    20 19 17.7 -10 02 40   0.2059  0.8519    45.1   125.0    27.2
...
2023 12 28    21 20 04.1 -07 30 57   0.08489 0.9253    44.9   131.4    26.1
...
2024 01 05    00 12 13.7 -00 21 15   0.03464 0.9772    78.9    99.1    22.0
...
2024 01 11    04 59 26.6 +09 49 57   0.04568 1.0202   142.8    35.6    20.6
2024 01 12    05 24 21.1 +10 10 40   0.05185 1.0277   147.6    30.8    20.7
2024 01 13    05 43 53.7 +10 22 26   0.05851 1.0352   151.1    27.3    20.9
...
2024 01 19    06 44 26.2 +10 37 59   0.1036  1.0813   159.2    18.9    22.0
...
2024 01 27    07 13 58.0 +10 45 28   0.1703  1.1453   159.0    17.9    23.2
...
2024 02 11    07 38 00.6 +11 14 44   0.3113  1.2687   151.3    21.9    24.8
A. U. Tomatic                (C) Copyright 2024 MPC           M.P.E.C. 2024-A146
    
    
More information about the Iaude
mailing list